sat.trackr.live / text

‹ back to catalog

STARLINK-3904

NORAD 52464 · 2022-049P

PAYLOAD ACTIVE UNKNOWN

§ Identity

Operator
Country
US
Launch date
2022-05-06
Launch site
AFETR
Launch vehicle
Mass (kg)
RCS (m²)

Purposes: comms

External: N2YO · Heavens-Above · Gunter

§ Orbital elements

Epoch: 2026-05-25T04:18:41.836032Z

Period
95.44 min
Inclination
53.2151°
Eccentricity
0.0001587
Mean motion
15.08837179 rev/d
Perigee alt
538.7 km
Apogee alt
540.8 km
Semi-major
6,917.9 km
B*
2.9959e-5
RAAN
75.7447°
Arg perigee
84.5347°
Mean anomaly
275.5826°
Rev number
22,379

§ Raw data

STARLINK-39041 52464U 22049P   26145.17965088  .00000189  00000+0  29959-4 0  99952 52464  53.2151  75.7447 0001587  84.5347 275.5826 15.08837179223793

JSON: /api/v1/satellites/52464 · /tle

For live sub-satellite position, see the globe view (requires WebGL).

§ Visibility from observer

Set your observer location to see the next 7 days of passes ≥ 10°. The values pass through the URL so the page stays shareable.

No JS? Fill the form by hand. The geolocation button needs JavaScript.